Munising, MI

10:52 PM EDT on May 22, 2017 (GMT -0400)
Munising

Weather History for KP53 - August, 2012

Change the Weather History Date:

Friday, August 17, 2012

  Actual Average (KISQ) Record (KISQ)
Temperature  
Mean Temperature 60 °F -  
Max Temperature 66 °F 73 °F 84 °F (1955)
Min Temperature 57 °F 52 °F 39 °F (1962)
Degree Days  
Heating Degree Days 4    
Growing Degree Days 10 (Base 50)    
Moisture  
Dew Point 47 °F    
Average Humidity 59    
Maximum Humidity 75    
Minimum Humidity 45    
Precipitation  
Precipitation 0.00 in - - ()
Sea Level Pressure  
Sea Level Pressure 29.90 in    
Wind  
Wind Speed 17 mph (NW)    
Max Wind Speed 23 mph    
Max Gust Speed 36 mph    
Averages and records for this station are not official NWS values.
T = Trace of Precipitation, MM = Missing Value Source: NWS Daily Summary

Daily Weather History Graph

Daily Weather History Graph

Search for Another Location

Airport or City:

Trip Planner

Search our weather history database for the weather conditions in past years. The results will help you decide how hot, cold, wet, or windy it might be!

Date:

Astronomy

Aug. 17, 2012 Rise Set
Actual Time 6:48 AM EDT 8:51 PM EDT
Civil Twilight 6:15 AM EDT 9:24 PM EDT
Nautical Twilight 5:35 AM EDT 10:04 PM EDT
Astronomical Twilight 4:50 AM EDT 10:48 PM EDT
Moon 6:54 AM EDT (8/17) 8:28 PM EDT (8/17)
Length of Visible Light 15h 08m
Length of Day
14h 03m
New Moon, 0% of the Moon is Illuminated
Aug 17
New Moon
Aug 24
First Quarter
Aug 31
Full
Sep 8
Last Quarter
Sep 15
New

Hourly Weather History & Observations

Time (EDT) Temp. Dew Point Humidity Pressure Visibility Wind Dir Wind Speed Gust Speed Precip Events Conditions
12:56 AM 62.1 °F 54.0 °F 75% 29.77 in - NNW 18.4 mph 26.5 mph N/A   Unknown
1:56 AM 61.0 °F 53.1 °F 75% 29.79 in - NNW 13.8 mph 32.2 mph N/A   Unknown
2:56 AM 61.0 °F 51.1 °F 70% 29.80 in - NW 18.4 mph 28.8 mph N/A   Unknown
3:56 AM 60.1 °F 50.0 °F 69% 29.82 in - NNW 18.4 mph 35.7 mph N/A   Unknown
4:56 AM 60.1 °F 50.0 °F 69% 29.83 in - NNW 18.4 mph 28.8 mph N/A   Unknown
5:56 AM 60.1 °F 48.0 °F 64% 29.83 in - NW 20.7 mph 29.9 mph N/A   Unknown
6:56 AM 60.1 °F 48.9 °F 67% 29.85 in - NW 16.1 mph 24.2 mph N/A   Unknown
7:56 AM 60.1 °F 46.0 °F 60% 29.86 in - NW 20.7 mph 28.8 mph N/A   Unknown
8:56 AM 60.1 °F 46.0 °F 60% 29.88 in - NW 17.3 mph 32.2 mph N/A   Unknown
9:56 AM 60.1 °F 46.0 °F 60% 29.88 in - NW 23.0 mph 29.9 mph N/A   Unknown
10:56 AM 60.1 °F 45.0 °F 57% 29.90 in - NW 17.3 mph 32.2 mph N/A   Unknown
11:56 AM 61.0 °F 44.1 °F 54% 29.91 in - NNW 20.7 mph 32.2 mph N/A   Unknown
12:56 PM 62.1 °F 43.0 °F 50% 29.92 in - NW 21.9 mph 33.4 mph N/A   Unknown
1:56 PM 63.0 °F 42.1 °F 46% 29.93 in - NW 21.9 mph 29.9 mph N/A   Unknown
2:56 PM 63.0 °F 44.1 °F 50% 29.94 in - NW 20.7 mph 31.1 mph N/A   Unknown
3:56 PM 64.0 °F 42.1 °F 45% 29.95 in - NW 16.1 mph 29.9 mph N/A   Unknown
4:56 PM 64.0 °F 43.0 °F 46% 29.96 in - NW 19.6 mph 27.6 mph N/A   Unknown
5:56 PM 64.9 °F 44.1 °F 47% 29.95 in - NW 18.4 mph 27.6 mph N/A   Unknown
6:56 PM 64.9 °F 46.9 °F 52% 29.95 in - NNW 16.1 mph - N/A   Unknown
7:56 PM 64.9 °F 48.0 °F 54% 29.95 in - NW 8.1 mph 18.4 mph N/A   Unknown
8:56 PM 63.0 °F 48.0 °F 58% 29.95 in - WNW 4.6 mph - N/A   Unknown
9:56 PM 60.1 °F 46.9 °F 62% 29.96 in - WSW 4.6 mph - N/A   Unknown
10:56 PM 57.0 °F 46.9 °F 69% 29.97 in - SW 4.6 mph - N/A   Unknown
11:56 PM 60.1 °F 45.0 °F 57% 29.96 in - WSW 6.9 mph - N/A   Unknown